TKJ4268 LTAC-LTFO

Flight info

Callsign TKJ4268
Flight time 1h 3m
Altitude 35000
Route GOBIT UL614 JUPNE UT54 SIV UW706 TBN UN37 ZUBRE
Aircraft B738/M-SDE2E3FGHIRWXY/LB1

Departure

Time 2026-04-28 22:33
Airport Esenboğa International Airport (LTAC)

Arrival

Time 2026-04-28 23:37
Airport Rize–Artvin Airport (LTFO)
Time Latitude Longitude Altitude Speed Heading
2026-04-28 22:04 40.11557 32.99033 3112 ft 0 kts 138°
2026-04-28 22:25 40.11572 32.99013 3112 ft 4 kts 123°
2026-04-28 22:26 40.11582 32.98982 3112 ft 4 kts 95°
2026-04-28 22:26 40.11579 32.98948 3112 ft 4 kts 66°
2026-04-28 22:26 40.11566 32.98921 3112 ft 2 kts 45°
2026-04-28 22:26 40.11565 32.98920 3112 ft 0 kts 45°
2026-04-28 22:29 40.11566 32.98922 3112 ft 2 kts 45°
2026-04-28 22:30 40.11594 32.98943 3112 ft 8 kts 12°
2026-04-28 22:30 40.11655 32.98893 3112 ft 14 kts 306°
2026-04-28 22:30 40.11724 32.98766 3111 ft 20 kts 306°
2026-04-28 22:30 40.11817 32.98600 3112 ft 24 kts 306°
2026-04-28 22:31 40.11888 32.98493 3112 ft 12 kts 340°
2026-04-28 22:31 40.11941 32.98521 3112 ft 0 kts 35°
2026-04-28 22:32 40.11955 32.98534 3112 ft 13 kts 35°
2026-04-28 22:32 40.12228 32.98796 3116 ft 83 kts 36°
2026-04-28 22:32 40.12867 32.99406 3122 ft 143 kts 36°
2026-04-28 22:33 40.13782 33.00282 3372 ft 170 kts 36°
2026-04-28 22:33 40.14740 33.01232 4100 ft 174 kts 38°
2026-04-28 22:33 40.15679 33.02245 4930 ft 177 kts 39°
2026-04-28 22:33 40.16642 33.03290 5631 ft 183 kts 39°
2026-04-28 22:34 40.17629 33.04361 6393 ft 186 kts 39°
2026-04-28 22:34 40.18620 33.05434 7058 ft 192 kts 38°
2026-04-28 22:34 40.19609 33.06766 7359 ft 219 kts 57°
2026-04-28 22:34 40.20208 33.08692 7585 ft 240 kts 80°
2026-04-28 22:35 40.20252 33.10908 8073 ft 249 kts 101°
2026-04-28 22:35 40.19576 33.13052 8338 ft 269 kts 127°
2026-04-28 22:35 40.18390 33.15061 8798 ft 286 kts 130°
2026-04-28 22:35 40.17136 33.17118 9540 ft 293 kts 131°
2026-04-28 22:36 40.15852 33.19221 10283 ft 300 kts 131°
2026-04-28 22:36 40.14502 33.21433 10557 ft 324 kts 130°
2026-04-28 22:36 40.13050 33.23823 10840 ft 345 kts 130°
2026-04-28 22:36 40.11540 33.26324 11478 ft 353 kts 130°
2026-04-28 22:37 40.10018 33.28847 12272 ft 356 kts 130°
2026-04-28 22:37 40.08474 33.31402 12812 ft 359 kts 130°
2026-04-28 22:37 40.07443 33.33104 13185 ft 364 kts 129°
2026-04-28 22:37 40.05341 33.36575 14249 ft 366 kts 129°
2026-04-28 22:38 40.04291 33.38307 14701 ft 369 kts 129°
2026-04-28 22:38 40.02686 33.40951 15337 ft 374 kts 129°
2026-04-28 22:38 40.01078 33.43641 15968 ft 378 kts 127°
2026-04-28 22:38 39.99555 33.46458 16635 ft 383 kts 124°
2026-04-28 22:39 39.98063 33.49363 17300 ft 387 kts 124°
2026-04-28 22:39 39.96571 33.52299 17974 ft 390 kts 123°
2026-04-28 22:39 39.95057 33.55267 18605 ft 394 kts 124°
2026-04-28 22:39 39.93526 33.58245 19196 ft 397 kts 124°
2026-04-28 22:40 39.91975 33.61240 19782 ft 400 kts 124°
2026-04-28 22:40 39.90430 33.64210 20356 ft 403 kts 124°
2026-04-28 22:40 39.88829 33.67277 20923 ft 406 kts 124°
2026-04-28 22:40 39.87253 33.70291 21477 ft 409 kts 124°
2026-04-28 22:41 39.85645 33.73364 22023 ft 412 kts 124°
2026-04-28 22:41 39.84023 33.76460 22569 ft 416 kts 124°
2026-04-28 22:41 39.82388 33.79581 23094 ft 419 kts 124°
2026-04-28 22:41 39.80736 33.82730 23613 ft 423 kts 124°
2026-04-28 22:42 39.79070 33.85902 24030 ft 426 kts 124°
2026-04-28 22:42 39.77441 33.89140 24443 ft 429 kts 117°
2026-04-28 22:42 39.76272 33.92711 24866 ft 431 kts 110°
2026-04-28 22:42 39.75261 33.96383 25293 ft 433 kts 108°
2026-04-28 22:43 39.74271 34.00098 25690 ft 436 kts 108°
2026-04-28 22:43 39.73278 34.03786 26084 ft 439 kts 109°
2026-04-28 22:43 39.72245 34.07541 26482 ft 442 kts 109°
2026-04-28 22:43 39.71191 34.11299 26879 ft 444 kts 109°
2026-04-28 22:44 39.70120 34.15070 27269 ft 447 kts 110°
2026-04-28 22:44 39.69034 34.18871 27652 ft 449 kts 110°
2026-04-28 22:44 39.67943 34.22679 28028 ft 452 kts 110°
2026-04-28 22:44 39.66844 34.26514 28395 ft 454 kts 110°
2026-04-28 22:45 39.65740 34.30368 28741 ft 457 kts 110°
2026-04-28 22:45 39.64628 34.34243 29102 ft 459 kts 110°
2026-04-28 22:45 39.63678 34.38208 29419 ft 461 kts 101°
2026-04-28 22:45 39.63212 34.42320 29748 ft 462 kts 92°
2026-04-28 22:46 39.63217 34.46491 30060 ft 463 kts 83°
2026-04-28 22:46 39.63580 34.50655 30337 ft 465 kts 82°
2026-04-28 22:46 39.63999 34.54826 30584 ft 467 kts 81°
2026-04-28 22:46 39.64424 34.58959 30827 ft 469 kts 81°
2026-04-28 22:47 39.64846 34.63160 31090 ft 471 kts 82°
2026-04-28 22:47 39.65255 34.67383 31419 ft 471 kts 82°
2026-04-28 22:47 39.65650 34.71600 31794 ft 470 kts 82°
2026-04-28 22:47 39.66035 34.75804 32148 ft 469 kts 82°
2026-04-28 22:48 39.66414 34.80016 32442 ft 470 kts 82°
2026-04-28 22:48 39.66791 34.84231 32729 ft 470 kts 83°
2026-04-28 22:48 39.67166 34.88445 33051 ft 470 kts 83°
2026-04-28 22:48 39.67540 34.92661 33377 ft 470 kts 83°
2026-04-28 22:49 39.67913 34.96871 33679 ft 470 kts 83°
2026-04-28 22:49 39.68285 35.01087 33954 ft 470 kts 83°
2026-04-28 22:49 39.68656 35.05305 34217 ft 470 kts 83°
2026-04-28 22:49 39.69025 35.09519 34455 ft 470 kts 83°
2026-04-28 22:50 39.69393 35.13738 34667 ft 471 kts 83°
2026-04-28 22:50 39.69760 35.17964 34892 ft 471 kts 83°
2026-04-28 22:50 39.70126 35.22193 35045 ft 473 kts 83°
2026-04-28 22:51 39.70856 35.30699 35035 ft 473 kts 83°
2026-04-28 22:51 39.71577 35.39170 35038 ft 470 kts 83°
2026-04-28 22:52 39.72285 35.47557 35035 ft 469 kts 83°
2026-04-28 22:52 39.72991 35.55972 35044 ft 468 kts 83°
2026-04-28 22:53 39.73682 35.64392 35043 ft 469 kts 84°
2026-04-28 22:53 39.74362 35.72817 35055 ft 469 kts 84°
2026-04-28 22:54 39.75037 35.81257 35057 ft 470 kts 84°
2026-04-28 22:54 39.75711 35.89743 35065 ft 472 kts 84°
2026-04-28 22:55 39.76382 35.98255 35070 ft 474 kts 84°
2026-04-28 22:55 39.77048 36.06802 35063 ft 476 kts 84°
2026-04-28 22:56 39.77706 36.15323 35066 ft 478 kts 84°
2026-04-28 22:56 39.78362 36.23933 35068 ft 478 kts 85°
2026-04-28 22:57 39.78592 36.32577 35064 ft 479 kts 90°
2026-04-28 22:57 39.78605 36.41237 35068 ft 479 kts 90°
2026-04-28 22:58 39.78638 36.49890 35071 ft 478 kts 90°
2026-04-28 22:58 39.78703 36.58543 35068 ft 478 kts 90°
2026-04-28 22:59 39.78769 36.67185 35074 ft 477 kts 90°
2026-04-28 22:59 39.78826 36.75743 35078 ft 476 kts 90°
2026-04-28 23:00 39.78931 36.84368 35076 ft 476 kts 85°
2026-04-28 23:00 39.80461 36.92747 35075 ft 476 kts 68°
2026-04-28 23:01 39.83522 37.00307 35080 ft 475 kts 59°
2026-04-28 23:01 39.86860 37.07759 35073 ft 475 kts 59°
2026-04-28 23:02 39.90133 37.15198 35070 ft 476 kts 60°
2026-04-28 23:02 39.93389 37.22726 35057 ft 476 kts 60°
2026-04-28 23:03 39.96631 37.30269 35056 ft 477 kts 60°
2026-04-28 23:03 39.99873 37.37821 35044 ft 477 kts 60°
2026-04-28 23:04 40.03075 37.45295 35058 ft 478 kts 60°
2026-04-28 23:04 40.07937 37.56676 35050 ft 479 kts 60°
2026-04-28 23:05 40.11194 37.64279 35045 ft 479 kts 60°
2026-04-28 23:05 40.12593 37.67535 35056 ft 479 kts 60°
2026-04-28 23:06 40.13475 37.69588 35058 ft 479 kts 60°
2026-04-28 23:06 40.16736 37.77192 35061 ft 480 kts 60°
2026-04-28 23:07 40.19994 37.84819 35049 ft 480 kts 60°
2026-04-28 23:07 40.21618 37.88629 34867 ft 477 kts 60°
2026-04-28 23:07 40.23221 37.92396 34612 ft 470 kts 60°
2026-04-28 23:08 40.24793 37.96093 34374 ft 464 kts 60°
2026-04-28 23:08 40.26341 37.99739 34145 ft 460 kts 60°
2026-04-28 23:08 40.27887 38.03385 33886 ft 458 kts 60°
2026-04-28 23:08 40.29431 38.07029 33598 ft 454 kts 60°
2026-04-28 23:09 40.30955 38.10629 33217 ft 449 kts 60°
2026-04-28 23:09 40.32463 38.14198 32829 ft 445 kts 60°
2026-04-28 23:09 40.33937 38.17749 32404 ft 443 kts 62°
2026-04-28 23:09 40.35365 38.21307 32018 ft 439 kts 62°
2026-04-28 23:10 40.36777 38.24842 31621 ft 436 kts 62°
2026-04-28 23:10 40.38188 38.28361 31232 ft 434 kts 61°
2026-04-28 23:10 40.39632 38.31819 30829 ft 431 kts 60°
2026-04-28 23:10 40.41102 38.35233 30456 ft 428 kts 59°
2026-04-28 23:11 40.42573 38.38627 30050 ft 426 kts 59°
2026-04-28 23:11 40.44030 38.41999 29604 ft 423 kts 60°
2026-04-28 23:11 40.45464 38.45340 29199 ft 419 kts 60°
2026-04-28 23:11 40.46883 38.48663 28782 ft 415 kts 60°
2026-04-28 23:12 40.48289 38.51962 28402 ft 411 kts 60°
2026-04-28 23:12 40.49677 38.55224 27981 ft 409 kts 60°
2026-04-28 23:12 40.51053 38.58470 27596 ft 405 kts 60°
2026-04-28 23:12 40.52394 38.61716 27202 ft 403 kts 61°
2026-04-28 23:13 40.53713 38.64958 26818 ft 401 kts 61°
2026-04-28 23:13 40.55023 38.68186 26423 ft 399 kts 62°
2026-04-28 23:13 40.56308 38.71354 26042 ft 396 kts 62°
2026-04-28 23:13 40.57605 38.74546 25656 ft 394 kts 62°
2026-04-28 23:14 40.58897 38.77723 25268 ft 392 kts 62°
2026-04-28 23:14 40.60177 38.80873 24892 ft 390 kts 62°
2026-04-28 23:14 40.61453 38.84013 24518 ft 388 kts 62°
2026-04-28 23:14 40.62724 38.87147 24135 ft 386 kts 62°
2026-04-28 23:15 40.63987 38.90263 23769 ft 385 kts 62°
2026-04-28 23:15 40.65245 38.93374 23294 ft 385 kts 62°
2026-04-28 23:15 40.66495 38.96478 22875 ft 382 kts 62°
2026-04-28 23:15 40.67737 38.99564 22504 ft 380 kts 62°
2026-04-28 23:16 40.68968 39.02626 22133 ft 376 kts 62°
2026-04-28 23:16 40.70184 39.05654 21764 ft 374 kts 62°
2026-04-28 23:16 40.71397 39.08679 21373 ft 372 kts 62°
2026-04-28 23:16 40.72605 39.11693 20987 ft 370 kts 62°
2026-04-28 23:17 40.73804 39.14686 20630 ft 368 kts 62°
2026-04-28 23:17 40.74999 39.17672 20262 ft 366 kts 62°
2026-04-28 23:17 40.76181 39.20632 19888 ft 364 kts 62°
2026-04-28 23:17 40.77358 39.23580 19539 ft 361 kts 62°
2026-04-28 23:18 40.78528 39.26508 19178 ft 359 kts 62°
2026-04-28 23:18 40.79628 39.29270 18840 ft 357 kts 62°
2026-04-28 23:18 40.80704 39.31974 18510 ft 356 kts 62°
2026-04-28 23:19 40.81847 39.34851 18118 ft 354 kts 62°
2026-04-28 23:19 40.82987 39.37721 17722 ft 351 kts 62°
2026-04-28 23:19 40.84117 39.40566 17356 ft 348 kts 62°
2026-04-28 23:19 40.85236 39.43390 16999 ft 345 kts 62°
2026-04-28 23:20 40.86345 39.46189 16652 ft 343 kts 62°
2026-04-28 23:20 40.87444 39.48964 16305 ft 340 kts 62°
2026-04-28 23:20 40.88535 39.51723 15952 ft 338 kts 62°
2026-04-28 23:20 40.89620 39.54470 15606 ft 335 kts 62°
2026-04-28 23:21 40.90697 39.57197 15266 ft 334 kts 62°
2026-04-28 23:21 40.91773 39.59925 14818 ft 336 kts 62°
2026-04-28 23:21 40.92847 39.62655 14467 ft 334 kts 62°
2026-04-28 23:21 40.93918 39.65375 14113 ft 333 kts 62°
2026-04-28 23:22 40.94986 39.68090 13734 ft 332 kts 62°
2026-04-28 23:22 40.95690 39.69882 13477 ft 330 kts 62°
2026-04-28 23:22 40.97083 39.73431 12965 ft 319 kts 62°
2026-04-28 23:22 40.98102 39.76026 12645 ft 317 kts 62°
2026-04-28 23:23 40.99113 39.78606 12312 ft 315 kts 62°
2026-04-28 23:23 41.00093 39.81186 12014 ft 311 kts 64°
2026-04-28 23:23 41.00997 39.83774 11702 ft 309 kts 65°
2026-04-28 23:23 41.01877 39.86360 11372 ft 307 kts 65°
2026-04-28 23:24 41.02750 39.88931 11056 ft 305 kts 65°
2026-04-28 23:24 41.03610 39.91456 10724 ft 304 kts 65°
2026-04-28 23:24 41.04480 39.93999 10398 ft 303 kts 65°
2026-04-28 23:24 41.05339 39.96507 10260 ft 294 kts 65°
2026-04-28 23:25 41.06175 39.98944 10105 ft 287 kts 65°
2026-04-28 23:25 41.06992 40.01327 9913 ft 282 kts 65°
2026-04-28 23:25 41.07529 40.02892 9701 ft 281 kts 65°
2026-04-28 23:25 41.08334 40.05241 9406 ft 279 kts 65°
2026-04-28 23:26 41.09135 40.07577 9118 ft 277 kts 65°
2026-04-28 23:26 41.09929 40.09896 8830 ft 276 kts 65°
2026-04-28 23:26 41.10717 40.12200 8546 ft 274 kts 65°
2026-04-28 23:26 41.11505 40.14503 8257 ft 273 kts 65°
2026-04-28 23:27 41.12286 40.16790 7974 ft 272 kts 65°
2026-04-28 23:27 41.13061 40.19062 7698 ft 270 kts 65°
2026-04-28 23:27 41.13832 40.21343 7410 ft 269 kts 65°
2026-04-28 23:27 41.14595 40.23608 7131 ft 268 kts 65°
2026-04-28 23:28 41.15357 40.25869 6856 ft 267 kts 65°
2026-04-28 23:28 41.16113 40.28116 6585 ft 266 kts 66°
2026-04-28 23:28 41.16869 40.30361 6281 ft 266 kts 66°
2026-04-28 23:28 41.17621 40.32595 6006 ft 264 kts 66°
2026-04-28 23:29 41.18368 40.34818 5729 ft 263 kts 66°
2026-04-28 23:29 41.19109 40.37026 5458 ft 261 kts 66°
2026-04-28 23:29 41.19848 40.39226 5189 ft 259 kts 69°
2026-04-28 23:29 41.20092 40.41568 4914 ft 257 kts 97°
2026-04-28 23:30 41.19630 40.43789 4804 ft 249 kts 110°
2026-04-28 23:30 41.19102 40.45662 4687 ft 243 kts 110°
2026-04-28 23:30 41.18507 40.47731 4573 ft 235 kts 110°
2026-04-28 23:30 41.17937 40.49722 4468 ft 227 kts 110°
2026-04-28 23:31 41.17394 40.51633 4397 ft 215 kts 110°
2026-04-28 23:31 41.16876 40.53465 4169 ft 209 kts 110°
2026-04-28 23:31 41.16374 40.55245 3961 ft 202 kts 110°
2026-04-28 23:31 41.15895 40.56955 3754 ft 193 kts 110°
2026-04-28 23:32 41.15434 40.58597 3537 ft 186 kts 110°
2026-04-28 23:32 41.14985 40.60198 3336 ft 184 kts 110°
2026-04-28 23:32 41.14537 40.61794 3151 ft 186 kts 110°
2026-04-28 23:32 41.14087 40.63400 2952 ft 186 kts 110°
2026-04-28 23:33 41.13636 40.65009 2756 ft 186 kts 109°
2026-04-28 23:33 41.13535 40.66663 2625 ft 177 kts 75°
2026-04-28 23:33 41.13831 40.68180 2408 ft 168 kts 77°
2026-04-28 23:33 41.14118 40.69699 2209 ft 169 kts 73°
2026-04-28 23:34 41.14459 40.71134 1969 ft 161 kts 71°
2026-04-28 23:34 41.14809 40.72513 1760 ft 154 kts 71°
2026-04-28 23:34 41.15151 40.73851 1542 ft 153 kts 71°
2026-04-28 23:34 41.15496 40.75198 1330 ft 154 kts 71°
2026-04-28 23:35 41.15841 40.76546 1113 ft 154 kts 71°
2026-04-28 23:35 41.16184 40.77886 889 ft 153 kts 71°
2026-04-28 23:35 41.16524 40.79208 687 ft 149 kts 72°
2026-04-28 23:35 41.16857 40.80516 466 ft 149 kts 71°
2026-04-28 23:36 41.17192 40.81800 268 ft 147 kts 72°
2026-04-28 23:36 41.17518 40.83094 88 ft 149 kts 72°
2026-04-28 23:36 41.17836 40.84336 27 ft 122 kts 71°
2026-04-28 23:36 41.18039 40.85120 27 ft 58 kts 72°
2026-04-28 23:37 41.18112 40.85398 27 ft 18 kts 69°
2026-04-28 23:37 41.18176 40.85501 24 ft 13 kts 70°
2026-04-28 23:37 41.18141 40.85516 27 ft 7 kts 239°
2026-04-28 23:37 41.18127 40.85450 28 ft 7 kts 253°
2026-04-28 23:38 41.18109 40.85381 27 ft 9 kts 250°
2026-04-28 23:38 41.18084 40.85292 30 ft 12 kts 250°
2026-04-28 23:38 41.18051 40.85172 26 ft 15 kts 251°
2026-04-28 23:38 41.18015 40.85028 26 ft 18 kts 251°
2026-04-28 23:39 41.17972 40.84862 22 ft 21 kts 251°
2026-04-28 23:39 41.17925 40.84678 23 ft 21 kts 252°
2026-04-28 23:39 41.17876 40.84491 21 ft 20 kts 250°
2026-04-28 23:39 41.17827 40.84417 22 ft 9 kts 190°
2026-04-28 23:40 41.17763 40.84437 23 ft 11 kts 160°
2026-04-28 23:40 41.17681 40.84476 20 ft 15 kts 161°
2026-04-28 23:40 41.17623 40.84477 18 ft 9 kts 216°
2026-04-28 23:40 41.17579 40.84465 18 ft 7 kts 166°
2026-04-28 23:41 41.17561 40.84472 16 ft 0 kts 164°